| time (UTC) | temp F | wind direction | speed knots | gust knots | rain 1hr in | rain 24hr in | rain mn in | humidity % | barometer mb |
| 20260504000353 | 68 | 306 | 7.8 | 13.0 | 0.00 | 0.00 | 0.00 | 18 | 927.7 |
| 20260503235849 | 68 | 329 | 7.0 | 13.0 | 0.00 | 0.00 | 0.00 | 18 | 927.6 |
| 20260503235347 | 67 | 319 | 7.8 | 11.3 | 0.00 | 0.00 | 0.00 | 20 | 927.5 |
| 20260503234844 | 67 | 260 | 3.5 | 7.8 | 0.00 | 0.00 | 0.00 | 20 | 927.7 |
| 20260503234341 | 68 | 261 | 2.6 | 9.6 | 0.00 | 0.00 | 0.00 | 19 | 927.7 |
| 20260503233839 | 68 | 353 | 7.8 | 9.6 | 0.00 | 0.00 | 0.00 | 19 | 927.7 |
| 20260503233335 | 68 | 307 | 1.7 | 12.2 | 0.00 | 0.00 | 0.00 | 20 | 927.7 |
| 20260503232831 | 68 | 321 | 4.3 | 9.6 | 0.00 | 0.00 | 0.00 | 20 | 927.5 |
| 20260503232329 | 67 | 270 | 4.3 | 6.1 | 0.00 | 0.00 | 0.00 | 19 | 927.3 |
| 20260503231827 | 68 | 318 | 4.3 | 8.7 | 0.00 | 0.00 | 0.00 | 20 | 927.7 |
| 20260503231323 | 69 | 322 | 7.0 | 11.3 | 0.00 | 0.00 | 0.00 | 19 | 927.1 |
| 20260503230819 | 67 | 314 | 0.0 | 5.2 | 0.00 | 0.00 | 0.00 | 19 | 927.3 |
| 20260503230316 | 67 | 359 | 0.0 | 4.3 | 0.00 | 0.00 | 0.00 | 19 | 927.5 |
| 20260503225814 | 67 | 357 | 0.9 | 5.2 | 0.00 | 0.00 | 0.00 | 19 | 927.6 |
| 20260503225309 | 68 | 356 | 5.2 | 13.0 | 0.00 | 0.00 | 0.00 | 18 | 927.6 |
| 20260503224806 | 68 | 353 | 2.6 | 5.2 | 0.00 | 0.00 | 0.00 | 17 | 927.6 |
| 20260503224304 | 68 | 325 | 7.8 | 14.8 | 0.00 | 0.00 | 0.00 | 17 | 927.6 |
| 20260503223801 | 69 | 272 | 4.3 | 11.3 | 0.00 | 0.00 | 0.00 | 17 | 927.7 |
| 20260503223259 | 68 | 298 | 5.2 | 7.8 | 0.00 | 0.00 | 0.00 | 17 | 927.7 |
| 20260503222755 | 68 | 258 | 4.3 | 7.0 | 0.00 | 0.00 | 0.00 | 17 | 927.7 |
| 20260503222253 | 68 | 262 | 3.5 | 7.8 | 0.00 | 0.00 | 0.00 | 17 | 927.8 |
| 20260503221751 | 68 | 282 | 0.0 | 8.7 | 0.00 | 0.00 | 0.00 | 18 | 927.8 |
| 20260503221249 | 70 | 316 | 0.0 | 4.3 | 0.00 | 0.00 | 0.00 | 17 | 927.8 |
| 20260503220745 | 68 | 2 | 0.9 | 7.8 | 0.00 | 0.00 | 0.00 | 18 | 928.1 |
| 20260503220242 | 68 | 332 | 5.2 | 13.0 | 0.00 | 0.00 | 0.00 | 18 | 928.1 |
| 20260503215738 | 69 | 297 | 7.0 | 8.7 | 0.00 | 0.00 | 0.00 | 17 | 928.1 |
| 20260503215236 | 68 | 338 | 4.3 | 12.2 | 0.00 | 0.00 | 0.00 | 17 | 928.1 |
| 20260503214734 | 68 | 263 | 0.0 | 7.8 | 0.00 | 0.00 | 0.00 | 18 | 928.5 |
| 20260503214230 | 67 | 283 | 5.2 | 7.0 | 0.00 | 0.00 | 0.00 | 17 | 928.1 |
| 20260503213728 | 68 | 304 | 2.6 | 8.7 | 0.00 | 0.00 | 0.00 | 17 | 928.4 |
| 20260503213225 | 68 | 303 | 0.0 | 5.2 | 0.00 | 0.00 | 0.00 | 17 | 928.4 |
| 20260503212722 | 68 | 321 | 5.2 | 12.2 | 0.00 | 0.00 | 0.00 | 17 | 928.6 |
| 20260503212220 | 68 | 59 | 0.9 | 4.3 | 0.00 | 0.00 | 0.00 | 18 | 928.4 |
| 20260503211717 | 68 | 339 | 5.2 | 7.8 | 0.00 | 0.00 | 0.00 | 19 | 928.7 |
| 20260503211213 | 68 | 325 | 4.3 | 8.7 | 0.00 | 0.00 | 0.00 | 17 | 928.8 |
| 20260503210709 | 68 | 231 | 3.5 | 5.2 | 0.00 | 0.00 | 0.00 | 18 | 928.9 |
| 20260503210206 | 68 | 275 | 4.3 | 11.3 | 0.00 | 0.00 | 0.00 | 18 | 928.8 |
| 20260503205701 | 67 | 112 | 2.6 | 7.8 | 0.00 | 0.00 | 0.00 | 18 | 928.7 |
| 20260503205158 | 69 | 182 | 4.3 | 6.1 | 0.00 | 0.00 | 0.00 | 18 | 929.1 |
| 20260503204654 | 69 | 64 | 0.0 | 1.7 | 0.00 | 0.00 | 0.00 | 16 | 928.7 |
| 20260503204152 | 67 | 248 | 3.5 | 4.3 | 0.00 | 0.00 | 0.00 | 17 | 929.1 |
| 20260503203649 | 69 | 243 | 4.3 | 7.8 | 0.00 | 0.00 | 0.00 | 18 | 929.2 |
| 20260503203147 | 67 | 294 | 6.1 | 7.8 | 0.00 | 0.00 | 0.00 | 19 | 928.7 |
| 20260503202644 | 68 | 26 | 7.8 | 13.0 | 0.00 | 0.00 | 0.00 | 18 | 929.1 |
| 20260503202142 | 69 | 203 | 5.2 | 7.0 | 0.00 | 0.00 | 0.00 | 18 | 929.2 |
| 20260503201640 | 69 | 7 | 0.0 | 0.9 | 0.00 | 0.00 | 0.00 | 17 | 929.2 |
| 20260503201137 | 69 | 225 | 0.9 | 4.3 | 0.00 | 0.00 | 0.00 | 16 | 929.4 |
| 20260503200633 | 69 | 57 | 0.0 | 1.7 | 0.00 | 0.00 | 0.00 | 17 | 929.4 |
| 20260503200129 | 69 | 207 | 6.1 | 9.6 | 0.00 | 0.00 | 0.00 | 18 | 929.3 |
| 20260503195627 | 69 | 133 | 0.0 | 0.9 | 0.00 | 0.00 | 0.00 | 19 | 929.4 |
| 20260503195123 | 69 | 98 | 0.9 | 2.6 | 0.00 | 0.00 | 0.00 | 18 | 929.6 |
| 20260503194621 | 68 | 91 | 0.0 | 1.7 | 0.00 | 0.00 | 0.00 | 18 | 929.5 |
| 20260503194116 | 68 | 68 | 0.0 | 1.7 | 0.00 | 0.00 | 0.00 | 18 | 929.5 |
| 20260503193613 | 67 | 29 | 0.0 | 0.0 | 0.00 | 0.00 | 0.00 | 19 | 929.7 |
| 20260503193108 | 65 | 32 | 0.0 | 5.2 | 0.00 | 0.00 | 0.00 | 18 | 929.7 |
| 20260503192604 | 65 | 112 | 3.5 | 5.2 | 0.00 | 0.00 | 0.00 | 21 | 929.9 |
| 20260503192100 | 65 | 101 | 0.0 | 2.6 | 0.00 | 0.00 | 0.00 | 19 | 930.0 |
| 20260503191557 | 65 | 82 | 0.0 | 0.9 | 0.00 | 0.00 | 0.00 | 19 | 929.9 |
| 20260503191054 | 65 | 75 | 0.0 | 0.0 | 0.00 | 0.00 | 0.00 | 18 | 929.9 |
| 20260503190551 | 65 | 245 | 0.0 | 0.0 | 0.00 | 0.00 | 0.00 | 18 | 929.9 |
| 20260503190048 | 64 | 41 | 0.0 | 0.0 | 0.00 | 0.00 | 0.00 | 18 | 930.2 |
| 20260503185544 | 64 | 54 | 0.0 | 0.0 | 0.00 | 0.00 | 0.00 | 18 | 930.3 |
| 20260503185044 | 64 | 34 | 0.0 | 2.6 | 0.00 | 0.00 | 0.00 | 19 | 930.4 |
| 20260503184540 | 64 | 358 | 0.0 | 1.7 | 0.00 | 0.00 | 0.00 | 19 | 930.1 |
| 20260503184037 | 64 | 51 | 1.7 | 2.6 | 0.00 | 0.00 | 0.00 | 19 | 930.3 |
| 20260503183533 | 65 | 81 | 0.0 | 0.0 | 0.00 | 0.00 | 0.00 | 18 | 930.4 |
| 20260503183031 | 66 | 40 | 0.0 | 0.0 | 0.00 | 0.00 | 0.00 | 17 | 930.5 |
| 20260503182529 | 66 | 12 | 0.0 | 6.1 | 0.00 | 0.00 | 0.00 | 17 | 930.7 |
| 20260503182026 | 66 | 268 | 2.6 | 2.6 | 0.00 | 0.00 | 0.00 | 17 | 930.5 |
| 20260503181523 | 66 | 56 | 0.0 | 5.2 | 0.00 | 0.00 | 0.00 | 17 | 930.7 |
| 20260503181019 | 68 | 17 | 5.2 | 7.0 | 0.00 | 0.00 | 0.00 | 17 | 930.7 |
| 20260503180517 | 67 | 47 | 0.0 | 4.3 | 0.00 | 0.00 | 0.00 | 18 | 930.8 |
| 20260503180014 | 66 | 127 | 0.0 | 2.6 | 0.00 | 0.00 | 0.00 | 21 | 930.7 |
| 20260503175512 | 66 | 305 | 6.1 | 7.0 | 0.00 | 0.00 | 0.00 | 18 | 930.8 |
| 20260503175008 | 66 | 91 | 0.0 | 2.6 | 0.00 | 0.00 | 0.00 | 18 | 930.8 |
| 20260503174506 | 65 | 28 | 0.0 | 4.3 | 0.00 | 0.00 | 0.00 | 20 | 931.0 |
| 20260503174001 | 65 | 326 | 7.0 | 7.8 | 0.00 | 0.00 | 0.00 | 20 | 931.0 |
| 20260503173457 | 66 | 4 | 2.6 | 5.2 | 0.00 | 0.00 | 0.00 | 19 | 931.1 |
| 20260503172954 | 65 | 91 | 2.6 | 2.6 | 0.00 | 0.00 | 0.00 | 19 | 931.1 |
| 20260503172451 | 64 | 68 | 1.7 | 6.1 | 0.00 | 0.00 | 0.00 | 19 | 931.3 |
| 20260503171948 | 65 | 88 | 2.6 | 4.3 | 0.00 | 0.00 | 0.00 | 20 | 931.1 |
| 20260503171444 | 67 | 67 | 0.0 | 0.9 | 0.00 | 0.00 | 0.00 | 20 | 931.2 |
| 20260503170942 | 67 | 243 | 0.0 | 5.2 | 0.00 | 0.00 | 0.00 | 18 | 931.2 |
| 20260503170438 | 65 | 33 | 1.7 | 2.6 | 0.00 | 0.00 | 0.00 | 20 | 931.1 |
| 20260503150831 | 55 | 93 | 0.9 | 2.6 | 0.00 | 0.00 | 0.00 | 39 | 932.1 |
| 20260503150327 | 55 | 87 | 0.0 | 1.7 | 0.00 | 0.00 | 0.00 | 41 | 932.1 |
| 20260503140251 | 44 | 120 | 2.6 | 5.2 | 0.00 | 0.00 | 0.00 | 56 | 932.4 |
| 20260503131221 | 37 | 116 | 2.6 | 4.3 | 0.00 | 0.00 | 0.00 | 66 | 932.7 |
| 20260503130718 | 36 | 123 | 3.5 | 5.2 | 0.00 | 0.00 | 0.00 | 68 | 931.8 |
| 20260503130215 | 35 | 129 | 4.3 | 6.1 | 0.00 | 0.00 | 0.00 | 69 | 931.8 |
| 20260503120141 | 34 | 128 | 4.3 | 5.2 | 0.00 | 0.00 | 0.00 | 71 | 931.6 |
| 20260503110609 | 36 | 115 | 2.6 | 4.3 | 0.00 | 0.00 | 0.00 | 69 | 931.9 |
| 20260503110106 | 36 | 122 | 2.6 | 4.3 | 0.00 | 0.00 | 0.00 | 69 | 931.9 |
| 20260503090455 | 36 | 118 | 2.6 | 2.6 | 0.00 | 0.00 | 0.00 | 67 | 932.0 |
| 20260503081422 | 37 | 122 | 4.3 | 6.1 | 0.00 | 0.00 | 0.00 | 66 | 932.1 |
| 20260503080919 | 37 | 121 | 6.1 | 6.1 | 0.00 | 0.00 | 0.00 | 66 | 932.3 |
| 20260503080415 | 37 | 147 | 4.3 | 7.0 | 0.00 | 0.00 | 0.00 | 67 | 932.3 |
| 20260503072852 | 38 | 124 | 4.3 | 6.1 | 0.00 | 0.00 | 0.00 | 65 | 932.4 |
| 20260503072349 | 38 | 125 | 3.5 | 5.2 | 0.00 | 0.00 | 0.00 | 67 | 932.5 |
| 20260503071845 | 38 | 127 | 2.6 | 5.2 | 0.00 | 0.00 | 0.00 | 66 | 932.5 |
| 20260503071343 | 38 | 125 | 3.5 | 5.2 | 0.00 | 0.00 | 0.00 | 66 | 932.5 |
| 20260503070839 | 39 | 129 | 3.5 | 5.2 | 0.00 | 0.00 | 0.00 | 64 | 932.3 |
| 20260503070337 | 39 | 128 | 3.5 | 5.2 | 0.00 | 0.00 | 0.00 | 63 | 932.4 |
| 20260503060302 | 42 | 115 | 1.7 | 2.6 | 0.00 | 0.00 | 0.00 | 58 | 932.7 |
| 20260503054744 | 43 | 121 | 2.6 | 6.1 | 0.00 | 0.00 | 0.00 | 56 | 932.5 |
| 20260503054240 | 43 | 124 | 4.3 | 6.1 | 0.00 | 0.00 | 0.00 | 55 | 932.4 |
| 20260503053738 | 44 | 139 | 4.3 | 5.2 | 0.00 | 0.00 | 0.00 | 55 | 932.7 |
| 20260503053236 | 44 | 131 | 4.3 | 5.2 | 0.00 | 0.00 | 0.00 | 54 | 932.6 |
| 20260503052732 | 44 | 122 | 2.6 | 5.2 | 0.00 | 0.00 | 0.00 | 53 | 932.4 |
| 20260503052229 | 44 | 124 | 2.6 | 6.1 | 0.00 | 0.00 | 0.00 | 52 | 932.6 |
| 20260503051724 | 44 | 133 | 4.3 | 6.1 | 0.00 | 0.00 | 0.00 | 51 | 932.6 |
| 20260503051222 | 44 | 134 | 2.6 | 6.1 | 0.00 | 0.00 | 0.00 | 52 | 932.5 |
| 20260503050718 | 45 | 120 | 5.2 | 7.0 | 0.00 | 0.00 | 0.00 | 51 | 932.6 |
| 20260503050215 | 45 | 122 | 3.5 | 7.8 | 0.00 | 0.00 | 0.00 | 50 | 932.6 |
| 20260503045712 | 45 | 131 | 4.3 | 7.8 | 0.00 | 0.00 | 0.00 | 51 | 932.7 |
| 20260503045210 | 45 | 144 | 4.3 | 5.2 | 0.00 | 0.00 | 0.00 | 52 | 932.6 |
| 20260503044706 | 45 | 113 | 2.6 | 6.1 | 0.00 | 0.00 | 0.00 | 51 | 932.5 |
| 20260503044204 | 46 | 133 | 3.5 | 4.3 | 0.00 | 0.00 | 0.00 | 50 | 932.6 |
| 20260503043700 | 46 | 124 | 3.5 | 5.2 | 0.00 | 0.00 | 0.00 | 49 | 932.5 |
| 20260503043158 | 46 | 128 | 3.5 | 4.3 | 0.00 | 0.00 | 0.00 | 50 | 932.6 |
| 20260503042653 | 47 | 105 | 0.0 | 0.0 | 0.00 | 0.00 | 0.00 | 50 | 932.6 |
| 20260503042150 | 47 | 61 | 0.0 | 0.0 | 0.00 | 0.00 | 0.00 | 50 | 932.4 |
| 20260503041646 | 48 | 58 | 0.0 | 0.0 | 0.00 | 0.00 | 0.00 | 49 | 932.4 |
| 20260503041144 | 48 | 74 | 0.0 | 0.0 | 0.00 | 0.00 | 0.00 | 46 | 932.5 |
| 20260503040641 | 47 | 44 | 0.0 | 0.0 | 0.00 | 0.00 | 0.00 | 46 | 932.4 |
| 20260503040139 | 49 | 66 | 0.0 | 0.0 | 0.00 | 0.00 | 0.00 | 42 | 932.4 |
| 20260503035635 | 50 | 67 | 0.0 | 0.0 | 0.00 | 0.00 | 0.00 | 40 | 932.5 |
| 20260503035133 | 50 | 59 | 0.0 | 0.0 | 0.00 | 0.00 | 0.00 | 41 | 932.3 |
| 20260503034630 | 50 | 63 | 0.0 | 0.0 | 0.00 | 0.00 | 0.00 | 41 | 932.1 |
| 20260503034127 | 51 | 76 | 0.0 | 0.0 | 0.00 | 0.00 | 0.00 | 40 | 932.1 |
| 20260503033624 | 51 | 72 | 0.0 | 0.0 | 0.00 | 0.00 | 0.00 | 40 | 931.9 |
| 20260503033122 | 51 | 76 | 0.0 | 0.0 | 0.00 | 0.00 | 0.00 | 39 | 932.0 |
| 20260503032620 | 51 | 51 | 0.0 | 0.0 | 0.00 | 0.00 | 0.00 | 39 | 932.0 |
| 20260503032118 | 52 | 45 | 0.0 | 0.0 | 0.00 | 0.00 | 0.00 | 39 | 931.9 |
| 20260503031615 | 53 | 15 | 0.0 | 0.0 | 0.00 | 0.00 | 0.00 | 38 | 931.8 |
| 20260503031113 | 53 | 13 | 0.0 | 0.0 | 0.00 | 0.00 | 0.00 | 37 | 931.9 |
| 20260503030609 | 54 | 9 | 0.0 | 0.0 | 0.00 | 0.00 | 0.00 | 37 | 931.7 |
| 20260503030106 | 54 | 2 | 0.0 | 0.0 | 0.00 | 0.00 | 0.00 | 37 | 931.7 |
| 20260503025602 | 55 | 17 | 0.0 | 0.0 | 0.00 | 0.00 | 0.00 | 36 | 931.8 |
| 20260503025100 | 55 | 4 | 0.0 | 0.0 | 0.00 | 0.00 | 0.00 | 34 | 931.9 |
| 20260503024556 | 55 | 1 | 0.0 | 0.0 | 0.00 | 0.00 | 0.00 | 33 | 931.6 |
| 20260503024054 | 55 | 353 | 0.0 | 0.0 | 0.00 | 0.00 | 0.00 | 33 | 931.7 |
| 20260503023550 | 56 | 5 | 0.0 | 1.7 | 0.00 | 0.00 | 0.00 | 33 | 931.5 |
| 20260503023048 | 57 | 342 | 0.0 | 4.3 | 0.00 | 0.00 | 0.00 | 32 | 931.5 |
| 20260503022543 | 57 | 354 | 0.9 | 1.7 | 0.00 | 0.00 | 0.00 | 32 | 931.5 |
| 20260503022038 | 57 | 318 | 1.7 | 4.3 | 0.00 | 0.00 | 0.00 | 31 | 931.6 |
| 20260503021535 | 58 | 343 | 3.5 | 6.1 | 0.00 | 0.00 | 0.00 | 30 | 931.7 |
| 20260503021032 | 58 | 352 | 4.3 | 5.2 | 0.00 | 0.00 | 0.00 | 31 | 931.5 |
| 20260503020529 | 58 | 6 | 0.0 | 1.7 | 0.00 | 0.00 | 0.00 | 32 | 931.5 |
| 20260503020026 | 59 | 6 | 2.6 | 4.3 | 0.00 | 0.00 | 0.00 | 31 | 931.5 |
| 20260503015523 | 59 | 330 | 0.0 | 2.6 | 0.00 | 0.00 | 0.00 | 30 | 931.5 |
| 20260503015020 | 60 | 309 | 0.0 | 2.6 | 0.00 | 0.00 | 0.00 | 29 | 931.5 |
| 20260503014516 | 60 | 309 | 2.6 | 4.3 | 0.00 | 0.00 | 0.00 | 28 | 931.3 |
| 20260503014014 | 61 | 0 | 2.6 | 4.3 | 0.00 | 0.00 | 0.00 | 28 | 931.2 |
| 20260503013511 | 61 | 322 | 0.9 | 4.3 | 0.00 | 0.00 | 0.00 | 28 | 931.1 |
| 20260503013009 | 62 | 347 | 0.0 | 1.7 | 0.00 | 0.00 | 0.00 | 27 | 931.2 |
| 20260503012506 | 62 | 305 | 6.1 | 7.0 | 0.00 | 0.00 | 0.00 | 25 | 931.5 |
| 20260503012002 | 62 | 317 | 7.0 | 7.8 | 0.00 | 0.00 | 0.00 | 25 | 931.3 |
| 20260503011459 | 62 | 334 | 3.5 | 7.0 | 0.00 | 0.00 | 0.00 | 26 | 931.3 |
| 20260503010956 | 63 | 292 | 7.8 | 9.6 | 0.00 | 0.00 | 0.00 | 25 | 931.6 |
| 20260503010452 | 63 | 346 | 2.6 | 8.7 | 0.00 | 0.00 | 0.00 | 24 | 931.6 |
| 20260503005950 | 64 | 324 | 7.0 | 7.8 | 0.00 | 0.00 | 0.00 | 23 | 931.5 |
| 20260503005447 | 64 | 326 | 4.3 | 6.1 | 0.00 | 0.00 | 0.00 | 24 | 931.6 |
| 20260503004944 | 65 | 333 | 0.9 | 7.8 | 0.00 | 0.00 | 0.00 | 23 | 931.7 |
| 20260503004440 | 64 | 345 | 2.6 | 4.3 | 0.00 | 0.00 | 0.00 | 23 | 931.5 |
| 20260503003938 | 65 | 321 | 7.0 | 7.8 | 0.00 | 0.00 | 0.00 | 22 | 931.7 |
| 20260503003435 | 65 | 324 | 7.0 | 8.7 | 0.00 | 0.00 | 0.00 | 21 | 931.5 |
| 20260503002932 | 65 | 11 | 0.0 | 9.6 | 0.00 | 0.00 | 0.00 | 22 | 932.0 |
| 20260503002429 | 66 | 278 | 0.9 | 8.7 | 0.00 | 0.00 | 0.00 | 22 | 931.9 |
| 20260503001925 | 66 | 274 | 0.9 | 8.7 | 0.00 | 0.00 | 0.00 | 21 | 931.8 |
| 20260503001422 | 67 | 284 | 4.3 | 8.7 | 0.00 | 0.00 | 0.00 | 21 | 931.8 |
| 20260503000920 | 67 | 250 | 4.3 | 5.2 | 0.00 | 0.00 | 0.00 | 20 | 931.9 |